Tracking 28126 objects as of 2-Oct-2023
HD Live streaming from Space Station
objects crossing your sky now

STARLINK-30378

Track STARLINK-30378 now!
10-day predictions
STARLINK-30378 is classified as:


NORAD ID: 57787
Int'l Code: 2023-134S
Perigee: 491.5 km
Apogee: 492.8 km
Inclination: 43.0 °
Period: 94.3 minutes
Semi major axis: 6863 km
RCS: Unknown
Launch date: September 4, 2023
Source: United States (US)
Launch site: AIR FORCE EASTERN TEST RANGE (AFETR)
Your satellite tracking list
Your tracking list is empty




NASA's NSSDC Master Catalog

Two Line Element Set (TLE):
1 57787U 23134S   23274.58334491 -.02097604  00000-0 -86482-1 0  9991
2 57787  42.9999 357.1917 0000960 262.5814 312.8498 15.26931727  5614
Source of the keplerian elements: AFSPC